CW8306 Weather Reports


Display with metric or nautical units.
time (UTC)temp
F
wind
direction
speed
MPH
gust
MPH
rain 1hr
in
rain 24hr
in
rain mn
in
humidity
%
barometer
mb
20260505174734 35 266 5.0 7.0 0.00 0.00 0.00 65 1014.1
20260505174231 35 301 3.0 8.0 0.00 0.00 0.00 64 1014.2
20260505173727 36 300 5.0 6.0 0.00 0.00 0.00 62 1013.9
20260505173224 36 82 3.0 7.0 0.00 0.00 0.00 62 1014.0
20260505172721 35 257 1.0 5.0 0.00 0.00 0.00 66 1013.9
20260505172218 34 15 3.0 10.0 0.00 0.00 0.00 67 1013.8
20260505171718 35 16 4.0 8.0 0.00 0.00 0.00 68 1014.0
20260505171215 34 254 2.0 7.0 0.00 0.00 0.00 68 1013.8
20260505170712 35 274 3.0 6.0 0.00 0.00 0.00 67 1013.7
20260505170209 35 275 4.0 7.0 0.00 0.00 0.00 67 1013.7
20260505165704 35 111 1.0 8.0 0.00 0.00 0.00 67 1013.7
20260505165200 34 306 3.0 7.0 0.00 0.00 0.00 69 1013.8
20260505164655 35 17 6.0 10.0 0.00 0.00 0.00 68 1013.7
20260505164153 34 12 2.0 6.0 0.00 0.00 0.00 70 1013.7
20260505163651 34 90 4.0 8.0 0.00 0.00 0.00 70 1013.7
20260505163149 34 166 2.0 7.0 0.00 0.00 0.00 69 1013.4
20260505162646 33 12 3.0 6.0 0.00 0.00 0.00 70 1013.7
20260505162144 33 26 4.0 6.0 0.00 0.00 0.00 71 1013.7
20260505161640 32 353 3.0 7.0 0.00 0.00 0.00 72 1013.5
20260505161138 33 303 6.0 9.0 0.00 0.00 0.00 70 1013.5
20260505160636 33 218 4.0 7.0 0.00 0.00 0.00 70 1013.6
20260505160133 33 227 2.0 8.0 0.00 0.00 0.00 71 1013.7
20260505153112 31 230 2.0 7.0 0.00 0.00 0.00 78 1013.5
20260505152609 31 126 2.0 6.0 0.00 0.00 0.00 78 1013.3
20260505152104 31 5 2.0 8.0 0.00 0.00 0.00 80 1013.5
20260505151600 31 349 2.0 6.0 0.00 0.00 0.00 80 1013.3
20260505151058 31 228 2.0 5.0 0.00 0.00 0.00 79 1013.2
20260505150553 31 239 1.0 3.0 0.00 0.00 0.00 79 1013.6
20260505140519 31 260 3.0 6.0 0.00 0.00 0.00 75 1012.9
20260505124932 29 279 4.0 6.0 0.00 0.00 0.00 84 1011.9
20260505124429 29 291 3.0 7.0 0.00 0.00 0.00 85 1012.2
20260505123925 29 7 3.0 5.0 0.00 0.00 0.00 85 1012.1
20260505123422 29 354 3.0 5.0 0.00 0.00 0.00 86 1012.1
20260505122918 29 285 3.0 5.0 0.00 0.00 0.00 86 1012.0
20260505122416 29 200 0.0 2.0 0.00 0.00 0.00 86 1011.9
20260505121912 28 199 1.0 5.0 0.00 0.00 0.00 86 1011.9
20260505121409 28 321 1.0 7.0 0.00 0.00 0.00 86 1011.8
20260505120905 28 311 2.0 3.0 0.00 0.00 0.00 85 1011.7
20260505120402 29 240 2.0 8.0 0.00 0.00 0.00 84 1011.8
20260505115900 29 244 2.0 5.0 0.00 0.00 0.00 83 1011.7
20260505115357 29 269 4.0 6.0 0.00 0.00 0.00 82 1011.7
20260505114855 29 225 2.0 5.0 0.00 0.00 0.00 81 1011.7
20260505114351 29 256 3.0 5.0 0.00 0.00 0.00 80 1011.4
20260505113848 29 264 3.0 5.0 0.00 0.00 0.00 80 1011.7
20260505113344 29 319 3.0 3.0 0.00 0.00 0.00 79 1011.7
20260505112840 29 171 1.0 3.0 0.00 0.00 0.00 78 1011.2
20260505112338 29 256 1.0 3.0 0.00 0.00 0.00 78 1011.4
20260505111833 29 274 3.0 5.0 0.00 0.00 0.00 78 1011.4
20260505111329 29 249 1.0 2.0 0.00 0.00 0.00 78 1011.2
20260505110825 29 270 3.0 3.0 0.00 0.00 0.00 78 1011.2
20260505110323 29 264 1.0 5.0 0.00 0.00 0.00 78 1011.2
20260505101757 29 274 3.0 3.0 0.00 0.00 0.00 77 1011.0
20260505101253 29 273 1.0 6.0 0.00 0.00 0.00 76 1010.9
20260505100749 29 202 0.0 3.0 0.00 0.00 0.00 76 1011.1
20260505100246 29 66 1.0 5.0 0.00 0.00 0.00 76 1011.0
20260505095741 29 276 2.0 5.0 0.00 0.00 0.00 76 1010.9
20260505095240 29 353 4.0 5.0 0.00 0.00 0.00 76 1010.8
20260505094735 29 123 3.0 6.0 0.00 0.00 0.00 76 1011.0
20260505094232 29 236 1.0 5.0 0.00 0.00 0.00 76 1010.6
20260505093728 29 230 1.0 5.0 0.00 0.00 0.00 76 1010.8
20260505093225 29 277 4.0 10.0 0.00 0.00 0.00 75 1010.8
20260505092722 29 329 3.0 5.0 0.00 0.00 0.00 75 1010.7
20260505092221 29 126 3.0 5.0 0.00 0.00 0.00 75 1010.7
20260505091718 29 354 2.0 8.0 0.00 0.00 0.00 75 1010.6
20260505091216 29 27 5.0 7.0 0.00 0.00 0.00 74 1010.8
20260505090713 29 283 2.0 5.0 0.00 0.00 0.00 75 1010.6
20260505090211 29 206 2.0 7.0 0.00 0.00 0.00 75 1010.6
20260505085708 29 287 2.0 7.0 0.00 0.00 0.00 75 1010.4
20260505085206 29 214 2.0 6.0 0.00 0.00 0.00 75 1010.3
20260505084703 29 221 0.0 2.0 0.00 0.00 0.00 76 1010.3
20260505084202 29 26 2.0 6.0 0.00 0.00 0.00 75 1010.2
20260505083659 29 301 4.0 8.0 0.00 0.00 0.00 75 1010.3
20260505083155 29 293 1.0 2.0 0.00 0.00 0.00 75 1010.2
20260505082651 29 285 2.0 5.0 0.00 0.00 0.00 76 1010.1
20260505082148 29 319 3.0 5.0 0.00 0.00 0.00 76 1010.3
20260505081644 29 350 2.0 7.0 0.00 0.00 0.00 76 1010.1
20260505081142 29 332 4.0 6.0 0.00 0.00 0.00 76 1010.3
20260505080639 29 184 1.0 2.0 0.00 0.00 0.00 76 1010.3
20260505080135 29 284 2.0 5.0 0.00 0.00 0.00 76 1010.1
20260505075631 29 251 1.0 2.0 0.00 0.00 0.00 77 1010.3
20260505075128 29 290 4.0 7.0 0.00 0.00 0.00 77 1010.1
20260505074625 29 358 1.0 3.0 0.00 0.00 0.00 78 1010.2
20260505074122 29 3 2.0 6.0 0.00 0.00 0.00 79 1010.1
20260505073620 29 201 1.0 5.0 0.00 0.00 0.00 79 1010.2
20260505073118 29 108 3.0 6.0 0.00 0.00 0.00 81 1010.4
20260505072613 29 230 2.0 5.0 0.00 0.00 0.00 82 1010.4
20260505072110 29 329 2.0 5.0 0.00 0.00 0.00 82 1010.3
20260505071605 29 200 2.0 6.0 0.00 0.00 0.00 83 1010.1
20260505071103 29 141 1.0 2.0 0.00 0.00 0.00 84 1010.1
20260505070600 29 143 2.0 7.0 0.00 0.00 0.00 84 1010.2
20260505070056 29 313 1.0 5.0 0.00 0.00 0.00 85 1010.2
20260505065552 30 5 2.0 5.0 0.00 0.00 0.00 85 1010.2
20260505065049 30 69 1.0 2.0 0.00 0.00 0.00 85 1010.2
20260505064546 30 208 1.0 3.0 0.00 0.00 0.00 85 1009.8
20260505064045 30 221 1.0 3.0 0.00 0.00 0.00 84 1010.0
20260505063542 31 252 1.0 3.0 0.00 0.00 0.00 83 1009.9
20260505063037 31 178 0.0 1.0 0.00 0.00 0.00 83 1009.9
20260505062534 31 206 3.0 7.0 0.00 0.00 0.00 81 1010.1
20260505062031 31 266 2.0 5.0 0.00 0.00 0.00 80 1010.0
20260505061529 31 200 0.0 5.0 0.00 0.00 0.00 79 1009.8
20260505061027 31 340 4.0 5.0 0.00 0.00 0.00 77 1009.8
20260505060524 31 341 1.0 2.0 0.00 0.00 0.00 77 1009.9
20260505060020 32 71 1.0 3.0 0.00 0.00 0.00 76 1009.7
20260505055515 32 200 1.0 2.0 0.00 0.00 0.00 76 1009.7
20260505055012 32 224 0.0 3.0 0.00 0.00 0.00 75 1009.6
20260505054510 32 52 1.0 5.0 0.00 0.00 0.00 75 1009.3
20260505054008 32 73 2.0 2.0 0.00 0.00 0.00 74 1009.4
20260505053505 32 159 0.0 3.0 0.00 0.00 0.00 74 1009.5
20260505053002 32 208 0.0 2.0 0.00 0.00 0.00 74 1009.5
20260505052459 32 212 0.0 1.0 0.00 0.00 0.00 74 1009.2
20260505051956 32 187 0.0 2.0 0.00 0.00 0.00 73 1009.2
20260505051452 32 208 0.0 0.0 0.00 0.00 0.00 73 1009.3
20260505050951 32 235 0.0 1.0 0.00 0.00 0.00 72 1009.3
20260505050449 32 232 0.0 0.0 0.00 0.00 0.00 72 1009.4
20260505041416 32 235 1.0 1.0 0.00 0.00 0.00 72 1009.2
20260505040913 32 266 1.0 1.0 0.00 0.00 0.00 72 1009.2
20260505040411 32 234 0.0 1.0 0.00 0.00 0.00 72 1009.2
20260505035907 32 230 1.0 1.0 0.00 0.00 0.00 71 1009.3
20260505035403 32 265 1.0 2.0 0.00 0.00 0.00 72 1009.1
20260505034901 32 216 0.0 1.0 0.00 0.00 0.00 72 1009.2
20260505034357 32 234 1.0 2.0 0.00 0.00 0.00 72 1009.4
20260505033855 32 223 0.0 1.0 0.00 0.00 0.00 72 1009.2
20260505033351 32 221 0.0 1.0 0.00 0.00 0.00 73 1009.2
20260505032850 32 220 0.0 1.0 0.00 0.00 0.00 73 1009.1
20260505032346 32 228 0.0 1.0 0.00 0.00 0.00 73 1009.2
20260505031843 32 211 0.0 0.0 0.00 0.00 0.00 73 1009.1
20260505031339 31 235 0.0 1.0 0.00 0.00 0.00 73 1009.0
20260505030837 31 213 0.0 0.0 0.00 0.00 0.00 73 1009.0
20260505030332 31 212 0.0 0.0 0.00 0.00 0.00 72 1009.2
20260505025828 31 198 0.0 0.0 0.00 0.00 0.00 71 1009.1
20260505025326 31 198 0.0 1.0 0.00 0.00 0.00 70 1008.9
20260505024824 31 213 0.0 0.0 0.00 0.00 0.00 69 1009.0
20260505024322 32 30 1.0 2.0 0.00 0.00 0.00 67 1009.1
20260505023819 32 53 1.0 2.0 0.00 0.00 0.00 66 1009.1
20260505023315 32 303 1.0 2.0 0.00 0.00 0.00 64 1008.9
20260505022813 32 236 2.0 3.0 0.00 0.00 0.00 63 1009.0
20260505022310 32 166 1.0 3.0 0.00 0.00 0.00 63 1008.7
20260505021807 32 221 1.0 6.0 0.00 0.00 0.00 63 1008.9
20260505021303 33 250 1.0 6.0 0.00 0.00 0.00 62 1008.7
20260505020759 33 103 2.0 5.0 0.00 0.00 0.00 63 1008.7
20260505020254 33 214 1.0 3.0 0.00 0.00 0.00 65 1008.7
20260505015752 33 46 4.0 6.0 0.00 0.00 0.00 66 1008.8
20260505015249 33 354 2.0 9.0 0.00 0.00 0.00 69 1008.4
20260505014746 33 18 3.0 3.0 0.00 0.00 0.00 70 1008.6
20260505014243 34 16 2.0 3.0 0.00 0.00 0.00 70 1008.5
20260505013739 34 174 0.0 7.0 0.00 0.00 0.00 70 1008.4
20260505013237 35 31 6.0 8.0 0.00 0.00 0.00 70 1008.7
20260505012735 35 54 4.0 6.0 0.00 0.00 0.00 69 1008.4
20260505012232 35 106 5.0 8.0 0.00 0.00 0.00 68 1008.5
20260505011728 35 279 3.0 5.0 0.00 0.00 0.00 66 1008.3
20260505011225 36 332 5.0 8.0 0.00 0.00 0.00 61 1008.2
20260505010721 36 340 5.0 9.0 0.00 0.00 0.00 60 1008.0
20260505010217 36 121 5.0 9.0 0.00 0.00 0.00 61 1008.0
20260505005714 37 253 3.0 7.0 0.00 0.00 0.00 61 1008.1
20260505005211 37 212 5.0 8.0 0.00 0.00 0.00 60 1007.6
20260505004708 37 107 4.0 10.0 0.00 0.00 0.00 59 1007.7
20260505004204 37 202 4.0 10.0 0.00 0.00 0.00 60 1007.6
20260505003702 37 4 4.0 7.0 0.00 0.00 0.00 61 1007.7
20260505003159 37 206 1.0 5.0 0.00 0.00 0.00 62 1007.7
20260505002655 37 314 2.0 6.0 0.00 0.00 0.00 62 1007.7
20260505002153 37 104 4.0 7.0 0.00 0.00 0.00 62 1007.7
20260505001650 37 30 3.0 3.0 0.00 0.00 0.00 61 1007.5
20260505001148 37 284 6.0 9.0 0.00 0.00 0.00 60 1007.5
20260505000644 37 218 3.0 6.0 0.00 0.00 0.00 60 1007.4
20260505000143 37 78 3.0 3.0 0.00 0.00 0.00 60 1007.6
20260504235638 37 100 4.0 6.0 0.00 0.00 0.00 60 1007.4
20260504235135 38 212 3.0 5.0 0.00 0.00 0.00 59 1007.6
20260504234633 39 3 7.0 9.0 0.00 0.00 0.00 58 1007.6
20260504234130 39 306 2.0 6.0 0.00 0.00 0.00 57 1007.5
20260504233625 39 342 2.0 6.0 0.00 0.00 0.00 59 1007.4
20260504233121 37 145 1.0 3.0 0.00 0.00 0.00 61 1007.5
20260504232620 38 28 3.0 6.0 0.00 0.00 0.00 62 1007.5
20260504232116 36 196 3.0 5.0 0.00 0.00 0.00 65 1007.7
20260504231613 36 307 2.0 6.0 0.00 0.00 0.00 66 1007.8
20260504231109 36 170 3.0 9.0 0.00 0.00 0.00 67 1007.6
20260504230605 36 282 3.0 10.0 0.00 0.00 0.00 67 1007.4
20260504230104 36 230 5.0 8.0 0.00 0.00 0.00 67 1007.5
20260504225602 37 314 5.0 7.0 0.00 0.00 0.00 66 1007.2
20260504225058 37 321 6.0 8.0 0.00 0.00 0.00 65 1007.5
20260504224555 37 15 3.0 7.0 0.00 0.00 0.00 65 1007.2
20260504224052 37 350 5.0 7.0 0.00 0.00 0.00 67 1007.2
20260504223549 36 257 2.0 10.0 0.00 0.00 0.00 67 1007.4
20260504223044 36 19 9.0 15.0 0.00 0.00 0.00 70 1006.8
20260504222542 36 120 3.0 7.0 0.00 0.00 0.00 72 1007.0
20260504222039 36 310 5.0 14.0 0.00 0.00 0.00 72 1007.0
20260504221536 36 305 8.0 9.0 0.00 0.00 0.00 74 1006.8
20260504221033 36 298 5.0 8.0 0.00 0.00 0.00 75 1006.7
20260504220529 36 323 5.0 9.0 0.00 0.00 0.00 76 1006.7
20260504220026 36 335 6.0 9.0 0.00 0.00 0.00 76 1006.6
20260504215522 36 312 4.0 7.0 0.00 0.00 0.00 74 1006.6
20260504215020 37 252 3.0 7.0 0.00 0.00 0.00 73 1006.4
20260504214516 37 320 3.0 7.0 0.00 0.00 0.00 73 1006.4
20260504214012 37 281 3.0 8.0 0.00 0.00 0.00 71 1006.2
20260504213509 38 208 4.0 6.0 0.00 0.00 0.00 68 1006.1
20260504213007 38 344 4.0 8.0 0.00 0.00 0.00 69 1006.1
20260504212502 38 263 3.0 5.0 0.00 0.00 0.00 70 1006.2
20260504212000 38 278 3.0 6.0 0.00 0.00 0.00 70 1006.1
20260504211456 38 234 4.0 7.0 0.00 0.00 0.00 66 1006.2
20260504210954 38 323 5.0 8.0 0.00 0.00 0.00 64 1005.9
20260504210450 39 40 2.0 6.0 0.00 0.00 0.00 64 1005.9
20260504205947 38 226 1.0 8.0 0.00 0.00 0.00 63 1005.9
20260504205444 39 350 4.0 7.0 0.00 0.00 0.00 63 1006.2
20260504204943 38 277 7.0 9.0 0.00 0.00 0.00 63 1005.7
20260504204441 38 324 6.0 14.0 0.00 0.00 0.00 64 1005.8
20260504203940 38 307 2.0 9.0 0.00 0.00 0.00 64 1005.8
20260504203437 38 311 8.0 9.0 0.00 0.00 0.00 64 1005.6
20260504202933 38 325 4.0 9.0 0.00 0.00 0.00 65 1005.7
20260504202430 39 322 6.0 10.0 0.00 0.00 0.00 63 1005.5
20260504201926 39 122 5.0 14.0 0.00 0.00 0.00 62 1005.6
20260504201424 39 66 4.0 9.0 0.00 0.00 0.00 62 1005.4
20260504200921 39 285 5.0 14.0 0.00 0.00 0.00 67 1005.4
20260504200418 38 295 5.0 8.0 0.00 0.00 0.00 70 1005.1
20260504195915 39 279 9.0 11.0 0.00 0.00 0.00 71 1005.4
20260504195410 39 337 6.0 13.0 0.00 0.00 0.00 72 1005.1
20260504194907 39 322 7.0 10.0 0.00 0.00 0.00 72 1005.1
20260504194403 38 343 7.0 14.0 0.00 0.00 0.00 72 1005.0
20260504193859 38 197 4.0 11.0 0.00 0.00 0.00 73 1004.9
20260504193356 39 58 4.0 10.0 0.00 0.00 0.00 74 1004.9
20260504192855 39 34 3.0 8.0 0.00 0.00 0.00 70 1004.7
20260504192352 39 333 4.0 8.0 0.00 0.00 0.00 70 1004.6
20260504191850 39 55 7.0 10.0 0.00 0.00 0.00 69 1004.5
20260504191348 39 306 6.0 9.0 0.00 0.00 0.00 69 1004.4
20260504190843 39 220 4.0 11.0 0.00 0.00 0.00 70 1004.1
20260504190339 39 245 4.0 10.0 0.00 0.00 0.00 67 1004.3
20260504185836 40 19 7.0 9.0 0.00 0.00 0.00 67 1004.4
20260504185333 40 28 5.0 13.0 0.00 0.00 0.00 67 1004.0
20260504184829 40 343 7.0 11.0 0.00 0.00 0.00 67 1004.1
20260504184325 40 27 5.0 11.0 0.00 0.00 0.00 69 1003.8
20260504183821 40 4 7.0 10.0 0.00 0.00 0.00 68 1003.8
20260504183319 41 55 4.0 10.0 0.00 0.00 0.00 68 1003.9
20260504182817 40 250 1.0 7.0 0.00 0.00 0.00 70 1003.6
20260504182314 40 248 3.0 13.0 0.00 0.00 0.00 72 1003.4
20260504181811 41 312 8.0 13.0 0.00 0.00 0.00 69 1003.5
20260504181308 40 326 5.0 7.0 0.00 0.00 0.00 70 1003.5
20260504180807 40 333 4.0 7.0 0.00 0.00 0.00 69 1003.2
20260504180305 40 62 7.0 11.0 0.00 0.00 0.00 70 1003.6
20260504175803 40 281 6.0 10.0 0.00 0.00 0.00 71 1003.3
20260504175259 39 103 4.0 7.0 0.00 0.00 0.00 75 1003.1